Hourly Data Report for October 20, 2016

All times are specified in Local Standard Time (LST). Add 1 hour to adjust for Daylight Saving Time where and when it is observed.

OTTAWA INTL A
ONTARIO

45°19'00.000" N
75°40'00.000" W
114.90 m
6106001
71628
YOW

Download Data

Hourly Data (October 2016)
Hourly Data Report for October 20, 2016
Temp Definition
°C
Dew Point Temp Definition
°C
Rel Hum Definition
%
Wind Dir Definition
10's deg

Wind Spd Definition
km/h
Visibility Definition
km
Stn Press Definition
kPa
Hmdx Definition


Wind Chill Definition


Weather Definition


TIME
00:00 Legend Double Dagger 8.2 7.9 98 18 8 24.1 100.69     LegendNANA
01:00 Legend Double Dagger 9.1 9.0 99 17 12 24.1 100.67     Mainly Clear
02:00 Legend Double Dagger 7.5 7.4 99 19 5 0.8 100.70     Fog
03:00 Legend Double Dagger 7.9 7.8 99 20 5 24.1 100.70     LegendNANA
04:00 Legend Double Dagger 8.8 8.7 99 15 3 4.8 100.75     Fog
05:00 Legend Double Dagger 7.3 7.2 99 8 5 2.4 100.76     Fog
06:00 Legend Double Dagger 7.3 7.2 99 5 10 3.2 100.76     Fog
07:00 Legend Double Dagger 7.7 7.6 99 10 8 1.2 100.74     Fog
08:00 Legend Double Dagger 8.4 8.3 99 5 8 4.8 100.75     Rain,Fog
09:00 Legend Double Dagger 9.1 9.0 99 1 9 4.8 100.80     Rain,Fog
10:00 Legend Double Dagger 9.2 9.1 99 14 9 4.8 100.81     Rain,Fog
11:00 Legend Double Dagger 10.4 10.3 99 10 5 9.7 100.79     Rain,Fog
12:00 Legend Double Dagger 11.0 10.9 99 8 13 9.7 100.66     Rain,Fog
13:00 Legend Double Dagger 11.7 11.4 98 10 10 9.7 100.63     Rain,Fog
14:00 Legend Double Dagger 11.5 11.1 97 12 13 9.7 100.60     Rain,Fog
15:00 Legend Double Dagger 11.6 11.3 98 5 9 6.4 100.61     Rain,Fog
16:00 Legend Double Dagger 11.2 10.9 98 5 14 4.8 100.55     Rain,Fog
17:00 Legend Double Dagger 10.6 10.0 96 6 16 9.7 100.51     Rain,Fog
18:00 Legend Double Dagger 10.1 9.8 98 7 18 8.1 100.42     Rain,Fog
19:00 Legend Double Dagger 9.7 9.4 98 7 21 8.1 100.40     Moderate Rain,Fog
20:00 Legend Double Dagger 9.5 9.2 98 5 18 8.1 100.38     Moderate Rain,Fog
21:00 Legend Double Dagger 9.6 9.5 99 3 19 11.3 100.27     Rain
22:00 Legend Double Dagger 9.7 9.6 99 3 17 11.3 100.21     Rain
23:00 Legend Double Dagger 9.6 9.3 98 3 22 11.3 100.12     Rain

Notes on Data Quality.

Legend

  • E = Estimated
  • M = Missing
  • NA = Not Available
  • ‡ = Partner data that is not subject to review by the National Climate Archives
Date modified: